Weather in Solton

Russia / Altai Krai     52°50′47″N   86°28′32″E
temp.,
°C
wind,
m/s
gust,
m/s
humid.,
%
clouds,
%
prec.,
mm/h
press.,
hPa
HPBL,
m
20 september, mon
mon2001:00+9w365797 0.0 1008123
04:00+7w61180100 0.4 1010919
07:00+6sw51089100 2.6 1013766
10:00+7wsw7137297 0.1 10151455
13:00+11wsw91534100 0.4 10152303
16:00+11wsw8133757 0.0 10152340
19:00+8w5114430 0.0 1015960
22:00+6sw3852100 0.0 1016293
21 september, tue
tue2101:00+7wsw51052100 0.0 10161000
04:00+3wsw4997100 0.5 1017590
07:00+3sw41097100 0.6 1018701
10:00+5wsw697696 0.3 10181235
13:00+6w696191 0.8 10191601
16:00+7w5748100 0.1 10191750
19:00+5w365378 0.1 1020309
22:00+4ssw246199 0.0 1021104
22 september, wed
wed2201:00+2ssw237299 0.0 102259
04:00+2ssw258096 0.0 1021351
07:000ssw3584100 0.0 1022195
10:00+4sw4573100 0.1 1022603
13:00+6wsw4659100 0.3 10211393
16:00+8wsw4648100 0.2 10201637
19:00+5wnw1167100 0.2 102114
22:00+3ne1181100 0.0 102211
23 september, thu
thu2301:00+2ssw0084100 0.0 102319
04:00+2sw2493100 0.2 1023407
07:00+1sw2498100 0.7 1025274
10:00+3w2390100 0.3 1026387
13:00+5nnw127099 0.6 10261040
16:00+6ne116994 0.4 1026802
19:00+3ene228493 0.6 102739
22:000ene119272 0.0 102711
24 september, fri
fri2401:00−1ne229259 0.0 102811
04:00−2ne229437 0.0 102713
07:00−3ne22945 0.0 102812
10:00+3nne22745 0.0 1029385
13:00+7nw2353100 0.1 10281566
16:00+6nw3451100 0.0 10291228
19:00+4wnw2258100 0.0 103153
22:00+1nnw117474 0.0 103210